sat.trackr.live / text

‹ back to catalog

DIRECTV 8

NORAD 28659 · 2005-019A

PAYLOAD ACTIVE UNKNOWN

§ Identity

Operator
Country
US
Launch date
2005-05-22
Launch site
TYMSC
Launch vehicle
Mass (kg)
RCS (m²)
16.67

Purposes: comms

External: N2YO · Heavens-Above · Gunter

§ Orbital elements

Epoch: 2026-05-25T03:42:38.615040Z

Period
1,436.09 min
Inclination
0.0154°
Eccentricity
0.0003259
Mean motion
1.00272224 rev/d
Perigee alt
35,772.7 km
Apogee alt
35,800.2 km
Semi-major
42,164.6 km
B*
0.0000e+0
RAAN
343.5588°
Arg perigee
88.0805°
Mean anomaly
107.7127°
Rev number
7,684

§ Raw data

DIRECTV 81 28659U 05019A   26145.15461360 -.00000001  00000+0  00000+0 0  99992 28659   0.0154 343.5588 0003259  88.0805 107.7127  1.00272224 76846

JSON: /api/v1/satellites/28659 · /tle

For live sub-satellite position, see the globe view (requires WebGL).

§ Visibility from observer

Set your observer location to see the next 7 days of passes ≥ 10°. The values pass through the URL so the page stays shareable.

No JS? Fill the form by hand. The geolocation button needs JavaScript.